Flag for Estonia Weather past 2 weeks in Tartu, Estonia

Now
63 °F

Sunny.


Feels Like: 63 °F
Forecast: 61 / 85 °F
Wind: 7 mph from East

Location: Tartu/Ulenurme

Current Time: Aug 5, 2015 at 10:15:27 AM

Latest Report: Aug 5, 2015 at 8:50 AM


Visibility: 10 mi

Pressure: 30.18 "Hg

Humidity: 73%

Dew point: 54 °F

Location of TartuLocation

Historic Weather in Tartu — Graph

°F

Tartu temperature yesterday

Maximum temperature yesterday: 73 °F (at 4:50 PM)
Minimum temperature yesterday: 48 °F (at 3:50 AM)
Average temperature yesterday: 62 °F

Past Weeks' High & Low Weather Summary

 TemperatureHumidityPressure
High77 °F (Jul 26, 3:50 PM)94% (Jul 22, 4:50 AM)30.21 "Hg (Jul 22, 4:50 AM)
Low46 °F (Jul 28, 2:50 AM)31% (Aug 4, 4:50 PM)29.50 "Hg (Jul 29, 4:50 AM)
Average60 °F74%29.81 "Hg
* Reported Jul 21 8:50 AM — Aug 5 8:50 AM, Tartu, Weather by CustomWeather, © 2015

Note: Actual official high and low records may vary slightly from our data, if they occured in-between our weather recording intervals... More about our weather records

Advertising

Tartu weather history for previous 24 hours

 ConditionsComfort  
Time TempWeatherWind HumidityBarometerVisibility
8:50 AM
Wed, Aug 5
63 °FSunny.7 mph73%30.18 "Hg10 mi
7:50 AM59 °FCool.5 mph77%30.18 "HgN/A
6:50 AM52 °FCool.3 mph88%30.18 "HgN/A
5:50 AM48 °FLight fog.No wind94%30.18 "HgN/A
4:50 AM50 °FCool.2 mph94%30.18 "Hg2 mi
3:50 AM48 °FFog.2 mph94%30.18 "Hg0 mi
2:50 AM50 °FFog.No wind88%30.18 "Hg1 mi
1:50 AM52 °FCool.No wind88%30.18 "HgN/A
12:50 AM55 °FCool.No wind82%30.18 "HgN/A
11:50 PM
Tue, Aug 4
55 °FCool.2 mph82%30.18 "HgN/A
10:50 PM57 °FCool.No wind77%30.18 "HgN/A
9:50 PM61 °FCool.1 mph68%30.15 "HgN/A
8:50 PM64 °FMild.5 mph64%30.15 "HgN/A
7:50 PM72 °FMild.5 mph50%30.15 "HgN/A
6:50 PM73 °FSunny.2 mph36%30.15 "Hg10 mi
5:50 PM73 °FPassing clouds.5 mph36%30.15 "HgN/A
4:50 PM73 °FSunny.3 mph31%30.15 "Hg10 mi
3:50 PM72 °FPassing clouds.5 mph41%30.18 "HgN/A
2:50 PM72 °FSunny.3 mph41%30.18 "Hg10 mi
1:50 PM70 °FSunny.6 mph43%30.18 "Hg10 mi
12:50 PM68 °FSunny.5 mph49%30.21 "Hg10 mi
11:50 AM66 °FPassing clouds.6 mph56%30.21 "HgN/A
10:50 AM64 °FPassing clouds.7 mph64%30.21 "HgN/A
Weather by CustomWeather, © 2015

See weather overviewHow to use our weather pages